Location: Bieujac
(44.5398°N, 0.1549°W)
Time: 02:50:11
(UTC+00:00)

ALOS - Pass Details

Date: 17 November 2019
Orbit: 683 x 685 km, 97.8° (Epoch: 13 December)

Event Time Altitude Azimuth Distance (km) Brightness Sun altitude
Rises 04:59:12 0° 19° (NNE) 3,058 5.8 -21.3°
Reaches altitude 10° 05:01:34 10° 26° (NNE) 2,138 5.0 -20.8°
Maximum altitude 05:06:01 43° 98° (E) 960 3.5 -20.1°
Drops below altitude 10° 05:10:26 10° 170° (S) 2,122 5.0 -19.3°
Sets 05:12:46 0° 177° (S) 3,033 5.7 -18.9°
